Overview Statistics Trail Chart Weather Telemetry Raw packets
 

This is the latest recevied weather packets stored in our database for station/object KB4MOX. If no packets are shown the sender has not sent any weather packets the latest 10 day(s).

<< 21 22 23 24 25 26 27 >>
Time Temp. Humidity Pressure Rain* Wind** Luminosity Snow
1788473654 35.56° C 45% 1015.1 hPa 0 mm - 154 W/m² -
1788473352 36.11° C 44% 1015 hPa 0 mm - 181 W/m² -
1788473052 35.56° C 45% 1015.2 hPa 0 mm - 195 W/m² -
1788472749 35.56° C 45% 1015.1 hPa 0 mm - 206 W/m² -
1788472447 36.11° C 45% 1015.2 hPa 0 mm - 146 W/m² -
1788472144 36.67° C 42% 1015.3 hPa 0 mm - 233 W/m² -
1788471841 36.67° C 43% 1015.2 hPa 0 mm - 289 W/m² -
1788471540 36.11° C 43% 1015 hPa 0 mm - 271 W/m² -
1788471235 35.56° C 44% 1015.3 hPa 0 mm - 329 W/m² -
1788470926 35.56° C 44% 1015.2 hPa 0 mm - 240 W/m² -
1788470622 35.56° C 45% 1015.3 hPa 0 mm - 240 W/m² -
1788470321 35.56° C 44% 1015.2 hPa 0 mm - 117 W/m² -
1788470018 35.56° C 44% 1015.3 hPa 0 mm - 369 W/m² -
1788469714 36.11° C 43% 1015.3 hPa 0 mm - 98 W/m² -
1788469408 36.67° C 42% 1015.3 hPa 0 mm - 385 W/m² -
1788469108 36.67° C 41% 1015.3 hPa 0 mm - 411 W/m² -
1788468808 36.11° C 42% 1015.4 hPa 0 mm - 444 W/m² -
1788468508 36.11° C 43% 1015.4 hPa 0 mm - 205 W/m² -
1788468204 36.11° C 43% 1015.3 hPa 0 mm - 113 W/m² -
1788467899 36.11° C 42% 1015.4 hPa 0 mm - 492 W/m² -
1788467595 36.67° C 41% 1015.5 hPa 0 mm - 511 W/m² -
1788467294 36.67° C 42% 1015.5 hPa 0 mm - 133 W/m² -
1788466991 36.11° C 43% 1015.5 hPa 0 mm - 277 W/m² -
1788466689 36.67° C 42% 1015.6 hPa 0 mm - 277 W/m² -
1788466385 36.67° C 43% 1015.5 hPa 0 mm - 595 W/m² -

* Rain latest hour (hover to see other rain measurements)
** Current wind speed in m/s (hover to see current wind gust speed)